Regional Weather Roundup
Issued by NWS Sterling, VA

Home | Current Version | Previous Version | Text Only | Print | Product List | Glossary Off
Versions: 1 2 3 4 5 6 7 8 9 10 11 12 13 14 15 16 17 18 19 20 21 22 23 24 25 26 27 28 29 30 31 32 33 34 35 36 37 38 39 40 41 42 43 44 45 46 47 48 49 50

000
ASUS41 KLWX 022210
RWRLWX

REGIONAL WEATHER ROUNDUP
NATIONAL WEATHER SERVICE BALTIMORE MD/WASHINGTON DC
600 PM EDT WED SEP 02 2015

Note: "FAIR" indicates few or no clouds below 12,000 feet
with no significant weather and/or obstructions to visibility.
 TC=TEMPERATURE CELSIUS

 * =Non NWS site. Station does not report precipitation (e.g. rain,
    snow, etc.), thunder, or fog.

DCZ001-MDZ009-015-VAZ040>042-051-053>054-022300-
WASHINGTON METRO

CITY           SKY/WX    TMP DP  RH WIND       PRES   REMARKS
WASHINGTON NAT CLOUDY    87  68  52 W9        29.95S HX  90
DULLES         CLOUDY    83  66  56 CALM      29.97R
ANDREWS AFB    CLOUDY    83  70  66 W13       29.94F
FT BELVOIR     CLOUDY    77  73  88 CALM      29.94F
QUANTICO       TSTM      83  70  64 N7        29.95F
COLLEGE PARK*  CLOUDY    90  64  43 W7        29.94S HX  91
LEESBURG*      CLOUDY    82  72  69 NW7       29.98S
MANASSAS*      SUNNY     82  72  69 CALM      29.97S
GAITHERSBURG*  CLOUDY    82  64  54 NW5       30.01R

$$

MDZ006>007-011-014-022300-
BALTIMORE METRO

CITY           SKY/WX    TMP DP  RH WIND       PRES   REMARKS
BWI AIRPORT    CLOUDY    88  67  49 W8        29.93S HX  91
MD SCIENCE CTR   N/A     87  71  58 MISG      29.93S HX  93
ANNAPOLIS      PTSUNNY   84  73  69 S5        29.92F HX  90
FORT MEADE*    CLOUDY    81  73  78 W8        29.95F

$$

MDZ012-015-019>023-022300-
MARYLAND EASTERN SHORE

CITY           SKY/WX    TMP DP  RH WIND       PRES   REMARKS
OCEAN CITY     PTSUNNY   82  70  66 S3        29.93F
SALISBURY      PTSUNNY   88  69  53 VRB3      29.92F HX  92
BAY BRIDGE AP*   N/A     84  68  58 CALM      29.93F
CAMBRIDGE*     MOSUNNY   86  66  51 W3        29.92F

$$

MDZ017>025-022300-
SOUTHERN MARYLAND

CITY           SKY/WX    TMP DP  RH WIND       PRES   REMARKS
PATUXENT RIVER PTSUNNY   84  72  67 CALM      29.93F
ST INIGOES     PTSUNNY   82  73  74 SW6       29.93F
LEONARDTOWN*   NOT AVBL

$$

MDZ003>005-022300-
NORTH CENTRAL MARYLAND

CITY           SKY/WX    TMP DP  RH WIND       PRES   REMARKS
FREDERICK*     PTSUNNY   73  72  94 CALM      29.99F
HAGERSTOWN APT CLOUDY    73  66  78 E3        29.98F
WESTMINSTER*   TSTM      75  70  83 SW7       29.99R

$$

MDZ501>502-022300-
WESTERN MARYLAND

CITY           SKY/WX    TMP DP  RH WIND       PRES   REMARKS
OAKLAND*       PTSUNNY   70  64  83 SW5       30.13S
CUMBERLAND*    PTSUNNY   81  68  65 CALM      30.04F

$$

VAZ025>031-022300-
SHENANDOAH VALLEY

CITY           SKY/WX    TMP DP  RH WIND       PRES   REMARKS
WINCHESTER*    PTSUNNY   79  70  73 SW8       30.00S
FRONT ROYAL*   CLOUDY    70  68  94 S7        30.00F
LURAY*         RAIN      66  66 100 NW5       30.03F VSB 1
NEW MARKET*    CLOUDY    70  67  90 CALM      30.02F
STAUNTON*      CLOUDY    80  64  57 NE6       30.07S
WAYNESBORO*    FAIR      73  65  74 CALM      30.06S

$$

WVZ021-048>050-054>055-022300-
EASTERN WEST VIRGINIA PANHANDLE

CITY           SKY/WX    TMP DP  RH WIND       PRES   REMARKS
MARTINSBURG    PTSUNNY   85  64  49 VRB6      29.99R
PETERSBURG*    PTSUNNY   76  68  75 CALM      30.03F

$$

VAZ036>039-050-022300-
CENTRAL FOOTHILLS

CITY           SKY/WX    TMP DP  RH WIND       PRES   REMARKS
CHARLOTTESVILL CLOUDY    76  63  64 N7G18     29.99S
CULPEPER*      LGT RAIN  76  68  76 NW6       29.99S
ORANGE*        CLOUDY    79  64  61 W6        30.00S
GORDONSVILLE*  FAIR      79  62  56 NW9G22    29.97F
WARRENTON*     FAIR      78  71  79 W5        29.98R

$$

VAZ055>057-022300-
NORTH AND CENTRAL PIEDMONT

CITY           SKY/WX    TMP DP  RH WIND       PRES   REMARKS
FREDERICKSBRG* CLOUDY    81  69  65 CALM      29.94F
STAFFORD*      CLOUDY    80  64  57 CALM      30.00S

$$

NCZ024-NYZ072-PAZ021-071-VAZ022-071-022300-
OTHER REGIONAL OBSERVATIONS

CITY           SKY/WX    TMP DP  RH WIND       PRES   REMARKS
NEW YORK CITY  SUNNY     84  64  50 VRB3      29.93S
PHILADELPHIA   MOSUNNY   92  61  35 SW10      29.91S HX  92
PITTSBURGH     MOSUNNY   88  61  40 W8        29.99F
ROANOKE        PTSUNNY   86  59  39 W9        30.02S
RICHMOND       PTSUNNY   82  71  69 SE6       29.95F
RALEIGH        PTSUNNY   88  68  51 W5        29.95F HX  91

$$

ANZ530>537-022300-
MARINE OBSERVATIONS

STATION/POSITION TIME  TEMP    WIND        PRES
                       AIR SEA DIR/SP/G
                 (UTC) (F)     (DEG/KT/KT) (MB)
THOMAS PT LIGHT  2200   82 80  220/ 10/ 10 1013.9
BALT KEY BRIDGE  2100   84     110/ 10/ 11 1013.3F
COVE POINT       2100   85     200/  3/  5 1014.6F
LEWISETTA        2100   83 81  220/  7/  8 1013.7F
SOLOMONS ISLAND  2100      83                N/A
PINEY POINT      2105          190/  7/  8   N/A

$$




USA.gov is the U.S. government's official web portal to all federal, state and local government web resources and services.